Powrót do katalogu

CZ-3B R/B

AktywnyHEO
NORAD 39158·ROCKET BODY·🇨🇳 China

Wystrzelony May 1, 2013 z Xichang Satellite Launch Center

Loading…

Następne Przeloty (najbliższe 24 godziny)

TLE

ŚwieżeSource: Space-Track

Epoka: Sep 11, 2026, 14:49 UTC

1 39158U 13020B   26254.61742994  .00121821  93989-6  16379-2 0  9990
2 39158  26.4894 358.3123 5937148 359.7728   0.0189  4.23899490130318

Śledź CZ-3B R/B w czasie rzeczywistym z AllMySat

Download on the App Store